Home > Weather > Lautoka > Past weeks

Flag for Fiji Weather for the Past 2 Weeks in Lautoka, Fiji

Now
79 °F

Passing clouds.


Feels Like: 81 °F
Forecast: 75 / 84 °F
Wind: 7 mph from North

Location: Nandi

Current Time: Apr 30, 2016 at 8:09:50 PM

Latest Report: Apr 30, 2016 at 7:00 PM


Visibility: N/A

Pressure: 29.92 "Hg

Humidity: 70%

Dew Point: 68 °F

Location of LautokaLocation

Historic Weather in Lautoka — Graph

°F

Lautoka Temperature Yesterday

Maximum temperature yesterday: 86 °F (at 11:00 AM)
Minimum temperature yesterday: 70 °F (at 6:00 AM)
Average temperature yesterday: 78 °F

High & Low Weather Summary for the Past Weeks

 TemperatureHumidityPressure
High90 °F (Apr 17, 2:00 PM)100% (Apr 17, 12:00 AM)30.01 "Hg (Apr 17, 12:00 AM)
Low70 °F (Apr 24, 5:00 AM)52% (Apr 27, 1:00 PM)29.59 "Hg (Apr 17, 2:00 AM)
Average79 °F77%29.83 "Hg
* Reported Apr 15 7:00 PM — Apr 30 7:00 PM, Lautoka, Weather by CustomWeather, © 2016

Note: Actual official high and low records may vary slightly from our data, if they occured in-between our weather recording intervals... More about our weather records

Advertising

Lautoka Weather History for the Previous 24 Hours

Scroll right to see more
 ConditionsComfort  
Time TempWeatherWind HumidityBarometerVisibility
7:00 PM
Sat, Apr 30
79 °FPassing clouds.7 mph70%29.92 "HgN/A
6:00 PM79 °FPassing clouds.10 mph70%29.89 "HgN/A
5:00 PM82 °FScattered clouds.12 mph66%29.86 "HgN/A
4:00 PM84 °FScattered clouds.12 mph58%29.86 "HgN/A
3:00 PM84 °FPassing clouds.13 mph55%29.86 "HgN/A
2:00 PM84 °FPassing clouds.13 mph58%29.89 "HgN/A
1:00 PM84 °FPassing clouds.13 mph58%29.89 "HgN/A
12:00 PM86 °FPassing clouds.5 mph52%29.92 "HgN/A
11:00 AM84 °FPassing clouds.8 mph55%29.95 "HgN/A
10:00 AM82 °FPassing clouds.7 mph58%29.98 "HgN/A
9:00 AM81 °FPassing clouds.6 mph62%29.95 "HgN/A
8:00 AM77 °FPassing clouds.6 mph69%29.95 "HgN/A
7:00 AM72 °FPassing clouds.6 mph78%29.95 "HgN/A
6:00 AM70 °FPassing clouds.7 mph83%29.95 "HgN/A
5:00 AM72 °FPassing clouds.7 mph83%29.92 "HgN/A
4:00 AM73 °FPassing clouds.9 mph78%29.92 "HgN/A
3:00 AM73 °FPassing clouds.12 mph78%29.92 "HgN/A
2:00 AM73 °FPassing clouds.10 mph78%29.95 "HgN/A
1:00 AM73 °FPassing clouds.8 mph83%29.95 "HgN/A
12:00 AM75 °FPassing clouds.7 mph78%29.98 "HgN/A
11:00 PM
Fri, Apr 29
75 °FPassing clouds.8 mph78%29.98 "HgN/A
10:00 PM75 °FPassing clouds.8 mph78%29.98 "HgN/A
9:00 PM75 °FPassing clouds.7 mph78%29.98 "HgN/A
8:00 PM81 °FPassing clouds.6 mph84%29.98 "HgN/A
Weather by CustomWeather, © 2016

See weather overviewHow to use our weather pages